Location: Central Coast NSW, Australia
(33.2407°S, 151.4316°E)
Time: 18:38:40
(UTC+10:00)

Hubble Space Telescope - Pass Details

Date: 01 April 2019
Orbit: 537 x 540 km, 28.5° (Epoch: 24 April)

Event Time Altitude Azimuth Distance (km) Brightness Sun altitude
Exits shadow 05:09:14 26° 26° (NNE) 1,089 2.4 -25.0°
Drops below altitude 10° 05:12:18 10° 73° (ENE) 1,799 4.2 -24.4°
Sets 05:14:50 0° 85° (E) 2,692 5.6 -23.9°
